North Las Vegas, NV

11:21 AM PDT on June 25, 2018 (GMT -0700)
North Las Vegas

Weather History for KVGT - December, 2017

Change the Weather History Date:

Thursday, December 7, 2017

  Actual Average Record
Temperature  
Mean Temperature 52 °F 48 °F  
Max Temperature 64 °F 57 °F 72 °F (2003)
Min Temperature 39 °F 39 °F 29 °F (2011)
Degree Days  
Heating Degree Days 13 17  
Month to date heating degree days 76 112  
Since 1 July heating degree days 199 425  
Cooling Degree Days 0 0  
Month to date cooling degree days 0 0  
Year to date cooling degree days 3660 3294  
Growing Degree Days 2 (Base 50)    
Moisture  
Dew Point -2 °F    
Average Humidity 12    
Maximum Humidity 18    
Minimum Humidity 5    
Precipitation  
Precipitation 0.00 in 0.01 in 0.46 in (2009)
Month to date precipitation 0.00 0.09  
Year to date precipitation 2.72 4.89  
Sea Level Pressure  
Sea Level Pressure 30.54 in    
Wind  
Wind Speed 6 mph (NE)    
Max Wind Speed 15 mph    
Max Gust Speed 20 mph    
Visibility 10 miles    
Events      
T = Trace of Precipitation, MM = Missing Value Source: NWS Daily Summary

Daily Weather History Graph

Daily Weather History Graph

Search for Another Location

Airport or City:

Astronomy

Dec. 07, 2017 Rise Set
Actual Time 6:38 AM PST 4:25 PM PST
Civil Twilight 6:10 AM PST 4:54 PM PST
Nautical Twilight 5:38 AM PST 5:26 PM PST
Astronomical Twilight 5:07 AM PST 5:57 PM PST
Moon 9:14 PM PST (12/7) 10:24 AM PST (12/7)
Length of Visible Light 10h 43m
Length of Day
9h 46m
Waning Gibbous, 77% of the Moon is Illuminated
Dec 7
Waning Gibbous
Dec 9
Last Quarter
Dec 17
New
Dec 26
First Quarter
Jan 1
Full

Hourly Weather History & Observations

Time (PST) Temp. Windchill Dew Point Humidity Pressure Visibility Wind Dir Wind Speed Gust Speed Precip Events Conditions
12:53 AM 51.1 °F - 1.9 °F 13% 30.51 in 10.0 mi NNE 11.5 mph - N/A   Clear
1:53 AM 48.9 °F - 1.0 °F 14% 30.52 in 10.0 mi North 11.5 mph - N/A   Clear
2:53 AM 46.9 °F - -0.0 °F 14% 30.53 in 10.0 mi NE 9.2 mph - N/A   Clear
3:53 AM 44.1 °F 39.5 °F -2.0 °F 15% 30.53 in 10.0 mi East 8.1 mph - N/A   Clear
4:53 AM 42.1 °F - -0.9 °F 17% 30.54 in 10.0 mi Calm Calm - N/A   Clear
5:53 AM 41.0 °F 38.0 °F -0.9 °F 17% 30.56 in 10.0 mi ENE 4.6 mph - N/A   Clear
6:53 AM 42.1 °F 38.4 °F -2.0 °F 16% 30.57 in 10.0 mi NE 5.8 mph - N/A   Clear
7:53 AM 44.1 °F 40.8 °F -0.0 °F 16% 30.60 in 10.0 mi East 5.8 mph - N/A   Clear
8:53 AM 48.0 °F - -0.9 °F 13% 30.60 in 10.0 mi ENE 3.5 mph - N/A   Clear
9:53 AM 53.1 °F - -2.9 °F 10% 30.59 in 10.0 mi ENE 5.8 mph - N/A   Clear
10:53 AM 57.0 °F - -5.1 °F 8% 30.56 in 10.0 mi ENE 6.9 mph 18.4 mph N/A   Clear
11:53 AM 57.0 °F - -4.0 °F 8% 30.54 in 10.0 mi East 9.2 mph - N/A   Clear
12:53 PM 62.1 °F - -8.0 °F 6% 30.50 in 10.0 mi NNE 11.5 mph - N/A   Clear
1:53 PM 64.0 °F - -7.1 °F 6% 30.48 in 10.0 mi NNE 9.2 mph - N/A   Clear
2:53 PM 62.1 °F - -5.1 °F 7% 30.48 in 10.0 mi Variable 5.8 mph - N/A   Clear
3:53 PM 60.1 °F - -6.0 °F 7% 30.49 in 10.0 mi East 6.9 mph - N/A   Clear
4:53 PM 57.9 °F - -4.0 °F 8% 30.50 in 10.0 mi Calm Calm - N/A   Clear
5:53 PM 55.9 °F - -2.0 °F 9% 30.51 in 10.0 mi North 5.8 mph - N/A   Clear
6:53 PM 54.0 °F - -0.9 °F 11% 30.53 in 10.0 mi ESE 3.5 mph - N/A   Clear
7:53 PM 51.1 °F - -2.0 °F 11% 30.54 in 10.0 mi Calm Calm - N/A   Clear
8:53 PM 46.9 °F - -0.0 °F 14% 30.55 in 10.0 mi Variable 4.6 mph - N/A   Clear
9:53 PM 48.9 °F - -0.9 °F 13% 30.55 in 10.0 mi NNW 5.8 mph - N/A   Clear
10:53 PM 44.1 °F 41.5 °F 3.9 °F 19% 30.56 in 10.0 mi NW 4.6 mph - N/A   Clear
11:53 PM 42.1 °F - 1.0 °F 18% 30.55 in 10.0 mi Calm Calm - N/A   Clear